Chino, CA

9:18 AM PDT on May 22, 2018 (GMT -0700)
Chino

Weather History for KCNO - March, 2014

Change the Weather History Date:

Thursday, March 20, 2014

  Actual Average Record
Temperature  
Mean Temperature 62 °F -  
Max Temperature 80 °F 68 °F 86 °F (2004)
Min Temperature 46 °F 42 °F 36 °F (2012)
Degree Days  
Heating Degree Days 2    
Growing Degree Days 12 (Base 50)    
Moisture  
Dew Point 45 °F    
Average Humidity 63    
Maximum Humidity 93    
Minimum Humidity 18    
Precipitation  
Precipitation 0.00 in - - ()
Sea Level Pressure  
Sea Level Pressure 29.99 in    
Wind  
Wind Speed 3 mph (West)    
Max Wind Speed 16 mph    
Max Gust Speed -    
Visibility 8 miles    
Events      
Averages and records for this station are not official NWS values.
T = Trace of Precipitation, MM = Missing Value Source: NWS Daily Summary

Daily Weather History Graph

Daily Weather History Graph

Search for Another Location

Airport or City:

Astronomy

Mar. 20, 2014 Rise Set
Actual Time 6:54 AM PDT 7:02 PM PDT
Civil Twilight 6:29 AM PDT 7:27 PM PDT
Nautical Twilight 6:00 AM PDT 7:56 PM PDT
Astronomical Twilight 5:30 AM PDT 8:25 PM PDT
Moon 11:14 PM PDT (3/20) 9:14 AM PDT (3/20)
Length of Visible Light 12h 58m
Length of Day
12h 08m
Waning Gibbous, 83% of the Moon is Illuminated
Mar 20
Waning Gibbous
Mar 23
Last Quarter
Mar 30
New
Apr 7
First Quarter
Apr 15
Full

Hourly Weather History & Observations

Time (PDT) Temp. Dew Point Humidity Pressure Visibility Wind Dir Wind Speed Gust Speed Precip Events Conditions
12:53 AM 52.0 °F 46.0 °F 80% 30.06 in 7.0 mi Calm Calm - N/A   Clear
1:53 AM 50.0 °F 46.0 °F 86% 30.06 in 6.0 mi Calm Calm - N/A   Clear
2:53 AM 48.0 °F 45.0 °F 89% 30.04 in 6.0 mi Calm Calm - N/A   Clear
3:53 AM 50.0 °F 46.9 °F 89% 30.02 in 6.0 mi Calm Calm - N/A   Clear
4:53 AM 46.9 °F 44.1 °F 90% 30.02 in 6.0 mi Calm Calm - N/A   Clear
5:53 AM 46.9 °F 45.0 °F 93% 30.02 in 5.0 mi Calm Calm - N/A   Clear
6:53 AM 46.9 °F 43.0 °F 86% 30.04 in 10.0 mi Calm Calm - N/A   Mostly Cloudy
7:53 AM 52.0 °F 45.0 °F 77% 30.04 in 10.0 mi Calm Calm - N/A   Mostly Cloudy
8:53 AM 59.0 °F 45.0 °F 60% 30.04 in 10.0 mi Calm Calm - N/A   Mostly Cloudy
9:53 AM 64.0 °F 43.0 °F 46% 30.03 in 10.0 mi Calm Calm - N/A   Overcast
10:53 AM 69.1 °F 39.0 °F 33% 30.02 in 10.0 mi Calm Calm - N/A   Overcast
11:53 AM 73.9 °F 35.1 °F 24% 29.99 in 10.0 mi NNW 3.5 mph - N/A   Mostly Cloudy
12:53 PM 77.0 °F 30.0 °F 18% 29.97 in 10.0 mi Calm Calm - N/A   Mostly Cloudy
1:53 PM 79.0 °F 37.0 °F 22% 29.94 in 10.0 mi SW 15.0 mph - N/A   Mostly Cloudy
2:53 PM 78.1 °F 42.1 °F 28% 29.93 in 10.0 mi WSW 16.1 mph - N/A   Mostly Cloudy
3:53 PM 75.9 °F 46.9 °F 36% 29.91 in 10.0 mi WSW 15.0 mph - N/A   Mostly Cloudy
4:53 PM 71.1 °F 48.9 °F 45% 29.91 in 10.0 mi West 15.0 mph - N/A   Mostly Cloudy
5:53 PM 69.1 °F 48.9 °F 49% 29.91 in 10.0 mi West 13.8 mph - N/A   Mostly Cloudy
6:53 PM 64.0 °F 48.9 °F 58% 29.92 in 10.0 mi WSW 15.0 mph - N/A   Mostly Cloudy
7:53 PM 61.0 °F 51.1 °F 70% 29.94 in 8.0 mi West 9.2 mph - N/A   Clear
8:53 PM 57.9 °F 51.1 °F 78% 29.96 in 8.0 mi West 8.1 mph - N/A   Clear
9:53 PM 57.0 °F 51.1 °F 81% 29.98 in 8.0 mi West 4.6 mph - N/A   Clear
10:53 PM 54.0 °F 51.1 °F 90% 29.98 in 7.0 mi Calm Calm - N/A   Clear
11:53 PM 55.0 °F 51.1 °F 86% 29.97 in 7.0 mi Calm Calm - N/A   Clear